Location: Baix
(44.7118°N, 4.7648°E)
Time: 07:39:55
(UTC+00:00)

Vanguard 1 - Pass Details

Date: 28 November 2020
Orbit: 648 x 3834 km, 34.3° (Epoch: 21 January)

Event Time Altitude Azimuth Distance (km) Brightness Sun altitude
Rises 08:14:31 0° 264° (W) 4,328 13.0 10.4°
Reaches altitude 10° 08:17:02 10° 258° (WSW) 3,657 12.7 10.7°
Maximum altitude 08:26:24 47° 189° (S) 2,757 12.9 11.9°
Drops below altitude 10° 08:42:55 10° 124° (ESE) 6,237 16.0 13.8°
Sets 08:48:50 0° 119° (ESE) 7,607 15.9 14.5°
